Location: Boissi�res
(45.2500°N, 2.3667°E)
Time: 09:19:33
(UTC+00:00)

Cosmos 1844 Rocket - Pass Details

Date: 03 March 2021
Orbit: 826 x 843 km, 71.0° (Epoch: 19 April)

Event Time Altitude Azimuth Distance (km) Brightness Sun altitude
Rises 18:21:59 0° 338° (NNW) 3,375 6.1 -8.1°
Reaches altitude 10° 18:24:35 10° 346° (NNW) 2,437 5.3 -8.5°
Maximum altitude 18:29:50 41° 56° (NE) 1,184 3.1 -9.5°
Drops below altitude 10° 18:35:04 10° 126° (SE) 2,425 4.6 -10.4°
Enters shadow 18:36:04 - 130° (SE) 2,783 4.9 -10.6°
